Theta_e
345 347 346 344 346 348 350 352 358 363 362 358 357 361 364 364 366 371 369 366 368 364 363 360 353 350 356 360 360 358 356 358 358 356 355 351 348 349 349 349 349 346 346 350 350 349 350 349 348 349 349 349 350 351 351 351 351 352 353 352 352 351 351 351 351 350 350 351 351 351 350 351 351 350 350 350 351 351 352 352 352 352 352 353 352 350 349 348 346 344 346 348 349 349 349 349 348
346 347 344 344 346 350 355 355 360 362 358 357 358 364 367 366 367 372 372 369 368 361 362 357 351 356 357 358 358 359 357 354 354 353 352 350 349 350 349 349 349 346 345 346 347 349 350 348 348 349 349 350 350 352 351 351 352 352 352 352 351 351 351 351 350 350 350 350 352 352 351 351 351 351 351 351 350 352 353 353 353 353 353 352 352 350 349 348 345 344 347 349 349 350 350 349 349
346 346 344 346 348 351 357 358 360 357 356 356 359 369 369 370 371 373 371 367 362 358 360 355 353 359 356 358 359 362 359 350 349 349 350 350 350 350 349 349 349 348 345 344 346 348 350 347 348 349 349 351 352 352 351 352 352 352 351 351 350 350 350 350 350 350 350 351 352 352 351 351 351 352 352 351 352 353 353 353 353 353 352 352 352 351 349 347 346 345 348 349 349 351 350 349 350
345 346 346 349 352 354 360 362 363 358 355 355 358 371 372 373 372 368 367 362 359 357 357 355 356 357 357 363 359 360 357 350 349 349 350 350 349 350 349 349 349 350 347 346 345 345 346 346 348 348 350 351 351 352 351 351 351 350 350 350 350 350 349 349 349 349 350 351 352 351 351 350 351 352 351 352 353 353 352 352 352 352 352 351 351 350 349 347 346 346 348 350 350 350 350 350 350
346 347 347 351 357 360 364 366 366 359 359 360 359 371 372 369 367 362 362 361 359 357 355 356 359 356 357 358 355 360 356 350 350 349 350 349 349 349 348 349 349 350 350 349 345 343 345 346 347 348 349 350 351 351 351 351 350 350 350 350 350 350 349 350 350 350 351 352 352 351 351 351 351 352 352 353 353 353 353 352 351 352 351 351 351 350 349 348 346 346 347 349 350 350 351 350 351
346 349 349 352 357 359 364 363 362 359 361 365 366 375 372 366 368 361 359 359 360 358 355 357 358 356 355 351 350 354 352 350 350 348 350 349 349 349 349 349 349 350 350 351 347 344 346 346 346 347 348 349 351 351 351 352 351 351 350 351 352 351 351 351 351 351 352 352 352 352 352 353 352 352 353 354 353 353 353 352 352 352 351 350 351 350 349 348 347 345 345 347 349 350 351 350 350
347 352 352 355 358 360 365 361 359 361 361 363 370 378 372 367 368 363 360 357 360 359 355 356 353 358 358 352 352 350 348 350 349 348 350 350 349 349 349 350 351 351 351 351 347 345 346 346 345 346 347 350 352 351 352 351 351 351 351 352 352 352 353 352 352 352 352 353 353 352 353 352 351 352 354 354 353 352 351 352 352 351 351 351 351 350 349 348 347 344 343 345 349 351 350 350 350
349 355 357 361 367 364 364 361 359 362 363 361 366 374 370 366 366 364 362 357 360 358 354 353 351 361 358 352 356 352 349 349 348 349 350 350 350 349 350 350 352 352 352 350 347 345 347 345 344 346 348 350 351 350 351 351 351 352 353 353 352 352 353 353 352 353 353 353 354 353 352 352 352 353 354 353 352 351 351 351 352 351 352 351 350 350 349 349 348 344 341 341 346 350 350 350 350
351 356 361 364 368 364 360 360 360 362 364 364 364 370 368 366 366 364 364 360 357 356 353 353 355 364 357 354 356 352 350 350 348 350 349 350 350 350 350 350 352 352 352 351 348 348 347 344 343 345 349 350 351 350 349 351 351 352 353 353 353 352 353 353 352 352 352 353 353 352 352 352 353 353 352 352 352 351 350 351 352 352 352 351 349 350 349 350 349 345 340 338 341 347 350 351 350
355 357 363 366 365 360 356 360 364 365 366 366 364 366 368 365 364 362 364 360 354 355 354 353 357 360 356 355 356 352 351 349 350 351 350 351 350 350 350 350 350 350 351 352 351 349 347 344 342 346 349 350 350 350 350 351 351 352 353 352 353 352 351 352 352 352 352 352 352 353 352 353 353 352 351 351 352 352 352 351 351 352 352 352 350 350 351 351 350 347 342 338 341 348 351 350 350
360 359 361 366 361 356 358 360 363 366 366 365 365 365 365 362 363 363 362 357 355 357 356 356 357 355 354 355 355 353 351 350 350 352 351 351 350 350 350 351 350 350 352 353 352 350 347 344 343 346 348 350 350 350 350 350 351 352 351 351 352 352 351 351 352 352 352 351 351 351 352 353 353 351 353 352 351 352 352 352 351 351 351 352 351 350 350 351 350 348 344 341 345 350 350 349 350
363 364 362 365 360 359 362 361 363 366 364 363 366 365 361 362 364 365 361 357 357 358 356 356 355 353 356 357 355 352 350 350 351 351 351 351 351 350 350 350 350 350 351 352 351 350 348 344 343 346 348 349 349 350 350 350 351 350 350 350 351 351 351 351 351 352 352 350 350 350 351 353 353 352 353 352 352 351 351 351 351 352 350 351 351 350 350 351 350 349 346 343 346 350 350 350 350
362 364 363 363 361 364 365 365 368 365 363 362 364 363 361 362 363 366 364 357 357 358 356 354 352 353 356 356 355 351 350 351 350 351 351 351 351 351 350 350 350 350 351 351 351 351 349 345 343 345 348 349 349 349 350 350 350 350 350 349 350 350 350 350 350 351 351 351 351 351 352 353 352 352 352 351 350 350 350 351 352 351 349 349 350 350 350 350 350 348 346 345 345 349 350 350 350
360 362 362 365 365 368 365 365 366 360 362 364 363 362 360 360 365 369 364 359 358 356 355 351 350 355 356 356 356 351 350 350 350 351 350 350 351 350 350 350 350 351 351 351 352 352 350 346 342 344 348 348 348 349 349 349 349 348 349 349 349 348 347 348 348 349 350 351 353 352 353 352 350 350 350 350 350 349 350 350 351 351 349 348 349 350 350 350 350 348 346 345 345 348 349 350 350
359 362 363 365 365 365 365 366 364 360 363 364 363 361 359 359 365 370 363 361 358 352 352 351 351 357 358 356 356 351 350 350 350 350 350 350 351 351 350 350 351 351 352 351 352 353 351 347 343 344 348 347 348 349 348 349 349 348 349 349 347 345 345 348 348 348 349 351 353 353 353 351 350 350 350 351 351 350 350 350 350 350 350 348 349 350 350 350 350 349 347 345 345 346 348 349 349
357 362 364 365 362 361 365 366 361 358 360 363 362 358 360 360 360 366 362 360 357 351 353 354 352 356 356 353 353 350 349 350 349 350 350 351 351 351 351 351 351 352 352 352 353 354 353 349 344 344 346 346 348 348 348 349 349 349 349 350 346 342 344 347 348 348 349 351 353 352 352 351 351 351 351 351 352 352 351 350 350 350 350 349 349 350 350 350 350 348 347 345 345 347 347 348 348
357 362 366 364 360 361 367 366 355 354 360 364 361 357 363 362 358 360 356 356 356 353 354 354 352 352 352 351 351 350 350 349 349 351 351 352 352 352 352 352 352 352 353 353 354 354 353 351 346 344 345 347 347 348 349 348 349 349 349 349 346 342 345 348 348 347 348 350 352 351 350 350 351 351 352 353 352 352 351 351 351 349 349 349 349 350 349 349 348 347 347 346 345 346 347 348 348
361 365 365 361 362 364 366 366 355 353 363 364 359 358 362 364 360 357 354 357 357 355 355 354 353 351 351 351 350 349 349 349 350 351 352 353 353 353 353 353 353 353 353 353 354 354 354 353 347 343 344 346 347 348 348 348 349 349 348 349 347 343 346 348 348 348 349 350 351 351 350 349 351 352 352 352 351 350 352 353 352 350 349 348 348 348 348 348 347 347 346 346 345 346 345 346 348
361 364 364 363 366 364 361 360 355 352 359 360 358 357 359 360 358 356 357 359 357 357 356 354 354 353 351 351 350 349 349 349 350 351 352 353 353 353 353 353 353 353 353 353 354 354 354 354 348 342 344 346 347 347 347 348 350 349 349 349 347 344 345 347 347 348 349 351 351 349 347 348 349 350 351 351 350 349 352 352 352 350 349 348 347 348 348 347 347 347 346 346 347 346 344 345 347
358 362 364 364 362 360 357 355 353 351 356 358 357 356 357 358 356 356 357 358 358 358 358 356 357 355 352 350 349 349 348 349 350 352 352 352 352 353 352 353 353 353 353 353 353 355 355 354 349 343 343 346 347 347 346 349 350 350 349 349 348 345 344 346 347 348 349 350 349 346 345 345 346 347 348 350 349 349 352 352 352 350 349 348 348 349 349 348 348 348 347 348 347 346 344 345 346
358 361 363 363 359 361 359 355 353 350 354 356 355 357 358 354 353 355 356 360 360 356 356 357 356 355 352 350 349 349 348 349 350 352 352 352 352 352 352 352 353 353 353 353 354 354 355 354 351 345 342 345 346 346 346 349 350 349 348 349 348 345 343 345 345 346 347 348 348 344 342 342 343 344 345 346 347 349 352 353 352 350 349 350 350 350 351 349 350 349 348 347 345 344 343 344 347
359 360 360 360 358 360 359 355 357 353 352 357 355 357 356 353 354 354 356 362 361 355 354 354 353 353 352 350 349 348 348 349 350 351 352 352 352 352 352 352 352 353 353 353 354 354 354 354 352 348 342 343 346 346 345 348 349 349 348 348 348 346 344 344 345 346 345 345 345 342 341 342 342 344 344 344 346 348 351 352 351 349 349 349 349 351 351 352 350 349 348 347 344 343 343 344 346
359 359 356 358 356 357 357 353 357 353 355 360 355 353 353 354 354 353 355 359 357 353 352 352 351 352 351 351 349 348 348 348 350 351 351 352 352 352 352 352 352 353 353 354 354 354 354 354 353 351 344 341 343 345 345 347 348 348 347 347 347 346 344 343 344 345 344 346 346 344 341 341 342 344 345 345 345 346 348 348 348 348 349 348 349 351 352 352 351 350 349 347 345 343 343 345 346
356 359 354 354 354 355 355 352 354 352 353 357 352 351 354 356 356 353 354 355 355 352 352 351 351 352 351 351 349 348 348 349 349 351 351 352 352 352 351 352 352 353 353 353 354 354 354 353 353 352 348 341 340 343 345 346 347 348 347 346 346 345 345 343 342 343 346 349 349 348 346 343 343 343 345 345 345 345 345 346 348 348 348 348 350 352 352 351 350 349 349 349 347 345 344 344 346
351 355 351 350 351 351 351 352 353 352 351 351 352 353 353 353 355 354 354 353 353 352 351 351 351 352 351 350 349 349 349 349 350 350 351 351 352 352 351 351 352 353 353 353 354 353 353 353 353 353 351 344 338 339 344 345 346 347 347 345 345 345 345 343 340 340 345 349 350 350 349 348 345 344 345 345 345 345 345 346 348 348 349 349 349 351 351 350 350 350 350 349 349 348 347 346 346
348 350 349 347 348 347 347 348 351 352 349 349 353 354 352 349 351 354 353 351 351 352 352 351 351 352 351 350 349 349 349 350 350 350 351 351 352 353 352 351 352 353 353 353 353 353 353 352 353 353 352 348 341 337 341 344 343 345 346 344 344 343 344 343 339 338 341 348 350 349 350 350 348 346 345 345 345 346 346 347 348 348 348 349 349 350 351 350 350 350 350 350 349 349 349 348 348
344 345 346 346 344 344 343 344 345 348 349 349 353 355 351 348 349 353 352 349 351 353 353 352 352 352 351 350 349 349 350 350 350 350 351 351 352 352 352 351 351 352 353 353 353 353 353 352 352 353 352 351 346 338 337 341 340 341 343 343 342 341 342 341 339 337 339 345 349 350 350 351 350 349 348 348 348 349 349 348 349 349 348 348 349 349 349 350 350 350 350 351 351 350 350 349 350
339 340 341 341 342 341 341 342 342 346 348 350 352 352 350 347 349 354 354 350 352 354 354 352 352 352 351 350 349 349 350 350 351 351 351 351 352 352 352 352 350 352 352 352 353 353 353 353 352 353 353 351 348 341 334 335 337 338 340 340 339 339 340 340 338 338 338 342 349 350 350 351 350 349 349 349 350 350 351 350 350 349 348 348 349 349 350 350 350 351 351 351 351 350 349 349 349
335 335 337 338 338 338 340 340 341 345 350 349 349 349 351 351 349 353 354 350 353 355 355 354 353 352 351 350 349 350 351 351 351 351 351 351 352 353 352 351 351 351 351 351 352 353 353 353 353 353 353 352 349 344 335 331 332 334 337 337 338 338 338 339 338 338 338 341 347 350 350 350 350 349 349 349 350 350 351 350 350 349 348 349 350 350 351 351 351 351 351 352 351 350 349 349 349
335 334 335 336 336 337 339 338 342 348 349 348 347 346 350 353 349 353 352 350 353 355 355 354 353 352 351 351 350 351 351 351 352 351 351 351 351 352 352 351 351 350 351 351 352 353 353 353 353 353 352 351 349 345 337 330 330 331 334 336 336 337 338 338 338 338 338 339 344 349 351 351 351 350 349 349 349 349 350 350 350 348 349 350 350 351 352 351 351 352 352 352 352 352 352 351 349
336 334 335 336 334 337 341 342 345 349 349 349 346 342 348 352 351 353 351 350 354 356 355 354 353 353 352 351 351 351 351 351 352 352 351 351 351 352 352 351 351 351 351 351 352 352 352 353 353 353 352 351 349 344 336 330 328 329 332 335 336 336 337 337 337 337 339 341 343 348 351 351 351 351 350 350 349 349 349 350 350 349 348 350 351 352 352 352 352 352 353 353 353 352 352 351 349
335 331 333 336 334 335 341 344 347 350 348 348 347 344 347 351 352 353 350 350 354 355 355 354 354 354 352 352 352 351 352 351 352 352 351 351 351 352 352 352 351 351 350 351 351 352 352 352 352 352 351 351 348 343 335 329 327 329 331 334 335 336 337 337 337 337 339 344 347 350 351 351 351 351 350 350 350 350 349 350 350 349 349 350 351 352 352 353 353 352 352 352 352 352 351 351 349
334 331 330 335 335 334 338 342 346 347 350 350 348 350 353 353 352 352 350 350 353 354 355 355 353 353 353 352 353 352 352 352 352 352 352 352 351 352 352 352 351 351 350 350 351 351 352 352 352 352 351 350 348 343 336 330 328 328 330 333 334 335 335 337 337 336 341 347 350 352 352 351 351 351 351 351 351 350 350 350 350 350 350 351 351 352 353 354 353 352 352 352 351 351 352 351 348
329 331 329 332 336 333 334 339 342 346 351 352 349 352 357 355 353 354 351 350 352 354 354 355 353 354 353 353 352 353 353 352 352 352 352 352 351 352 352 352 351 351 350 350 351 351 351 352 352 351 351 349 348 344 338 331 328 328 330 332 333 335 335 336 336 337 342 348 350 352 352 352 352 352 352 352 351 350 350 350 350 351 351 351 351 351 352 354 353 352 352 352 351 350 351 351 347
325 327 327 329 331 331 332 335 340 347 351 352 351 350 353 353 353 354 352 351 352 353 353 353 353 353 353 352 353 353 353 352 352 351 352 352 352 352 352 352 352 351 350 350 350 351 351 351 351 351 350 349 348 345 341 335 330 329 330 333 334 335 335 336 337 340 345 348 350 350 351 352 352 352 353 352 351 350 350 350 351 351 352 352 352 352 353 353 352 352 351 352 352 351 352 351 348
330 330 329 328 328 329 333 333 339 350 352 352 352 349 350 353 355 356 352 351 352 351 352 351 352 353 352 353 352 352 353 352 351 351 352 352 351 352 352 352 352 351 351 350 350 350 351 351 351 351 350 350 349 347 345 341 337 334 332 335 336 335 335 335 339 345 348 348 350 350 350 352 352 352 352 353 351 350 350 350 352 352 352 352 352 352 352 352 352 352 352 352 352 352 353 352 348
330 330 329 330 328 328 334 334 336 348 351 350 352 350 350 352 355 357 353 352 353 352 352 352 351 352 352 352 352 352 352 351 350 351 351 351 351 352 352 352 352 352 351 350 350 350 351 351 351 351 350 349 349 348 347 345 343 340 338 338 336 334 334 335 341 347 348 349 349 349 350 351 353 352 352 352 351 351 350 352 353 352 352 352 352 352 352 352 353 353 353 352 353 353 353 352 348
328 328 327 328 328 328 333 333 334 343 350 349 353 351 350 351 352 356 355 354 354 353 353 352 351 351 351 352 352 352 351 351 350 350 351 351 351 351 351 352 352 352 351 350 350 350 350 351 350 351 350 350 350 349 348 347 345 341 339 338 333 333 333 335 342 347 348 348 349 349 350 352 353 352 352 352 351 352 351 352 353 352 353 353 352 352 352 353 353 354 353 352 353 354 353 352 349
326 327 325 324 327 327 330 333 332 338 348 352 354 351 348 349 350 354 356 355 354 352 352 352 351 351 351 351 350 351 351 351 350 350 351 351 351 351 351 352 351 352 352 351 350 350 350 350 350 350 351 350 350 349 348 347 346 342 340 337 334 333 333 336 344 347 347 348 349 349 350 351 352 353 353 352 352 352 352 352 352 353 354 353 353 353 353 353 353 354 353 353 353 353 353 352 351
327 327 324 322 325 325 325 331 331 335 346 352 353 349 349 350 349 353 355 354 354 353 352 352 350 351 350 349 349 350 351 351 351 350 350 351 351 351 351 352 352 352 352 352 351 350 350 351 351 350 351 350 350 350 349 348 347 346 346 343 340 338 337 339 346 348 348 348 349 349 350 352 352 353 353 352 352 352 352 352 352 353 354 354 354 353 353 353 354 354 354 354 353 354 353 353 352
326 327 325 324 326 325 325 330 331 333 339 344 344 338 342 351 348 351 354 354 355 353 353 352 351 351 349 349 349 348 350 350 351 350 349 350 350 351 352 352 352 352 352 352 352 351 351 351 350 350 350 350 350 350 350 349 349 348 349 348 346 345 344 345 348 350 349 349 349 349 351 352 353 352 353 352 353 353 353 352 352 353 353 354 354 353 353 353 353 354 354 354 354 354 354 353 353
325 327 327 326 328 327 327 328 327 327 329 337 335 324 333 355 349 346 352 355 357 355 354 355 352 352 350 350 350 348 349 349 350 350 349 349 350 351 351 352 352 352 352 352 352 352 351 351 351 351 350 350 351 350 350 350 350 350 350 349 349 347 347 349 350 350 349 349 349 350 351 352 353 353 352 352 352 353 352 352 352 352 352 352 353 353 354 353 353 354 354 353 354 354 354 353 353
322 326 328 328 329 326 325 325 324 323 326 336 334 323 331 349 347 344 351 356 357 355 355 354 353 352 351 350 350 348 348 348 348 349 348 348 350 351 351 351 353 352 353 352 352 352 352 351 351 351 351 350 351 350 350 351 350 350 350 349 349 349 348 349 349 350 349 349 350 350 350 352 353 352 352 353 353 352 351 351 351 351 350 350 352 353 353 354 354 355 354 354 354 354 355 354 354
323 329 330 328 328 326 325 324 322 326 328 329 331 330 328 332 340 347 349 353 358 356 355 354 353 352 352 350 349 349 348 347 348 348 348 349 348 350 351 351 353 352 353 353 353 353 352 352 351 351 351 351 351 351 351 351 350 350 350 349 350 350 349 349 349 350 350 349 350 350 351 351 352 352 352 352 353 352 352 350 349 349 349 349 350 353 353 353 354 355 356 355 355 356 356 356 354
327 330 331 330 328 328 327 324 322 326 325 320 324 328 325 328 343 352 349 350 354 356 356 354 354 353 351 351 349 349 348 348 347 348 348 348 348 349 350 351 352 352 353 353 353 353 353 352 352 351 351 351 351 351 351 351 350 350 350 350 350 350 349 349 350 350 350 351 350 351 351 351 351 352 352 352 353 352 352 351 350 348 348 348 348 351 352 352 353 354 356 356 355 356 356 356 356
328 328 329 329 328 328 327 326 322 322 322 319 321 323 321 326 336 343 346 346 348 354 355 353 354 352 351 352 349 349 349 348 347 347 347 347 347 348 349 351 352 352 353 353 353 353 353 353 353 352 352 352 351 351 351 351 350 350 350 350 350 350 350 349 349 351 351 351 351 351 351 351 351 351 351 352 352 352 352 352 351 349 348 347 346 349 351 352 352 353 355 355 355 355 356 357 356
328 328 326 325 329 330 328 328 323 321 321 319 320 322 321 322 326 334 345 348 347 349 351 352 352 352 351 351 350 349 349 348 348 347 347 347 347 347 348 349 351 352 353 353 353 353 354 353 353 353 352 352 352 351 351 351 351 351 350 350 350 350 351 350 350 350 351 351 351 352 351 351 351 351 351 351 352 352 352 352 352 350 349 348 346 346 348 349 350 352 354 354 354 354 355 356 357
328 330 327 324 328 326 324 325 322 321 322 320 320 323 322 319 323 333 343 347 348 346 348 350 350 351 352 350 349 349 349 348 348 348 348 347 347 346 346 348 349 351 352 353 353 353 353 354 353 353 353 352 352 352 352 351 351 351 350 350 350 351 351 351 350 350 351 351 351 352 352 351 351 351 351 351 352 351 351 351 352 351 350 349 348 346 345 345 347 351 354 353 353 353 354 357 357
327 329 326 324 325 325 324 324 323 322 325 326 324 323 321 320 324 331 338 341 346 346 345 347 347 349 350 349 350 349 348 349 348 348 348 347 348 347 346 347 348 350 351 352 353 353 353 353 353 353 353 353 353 353 352 352 351 351 351 350 350 350 351 351 351 351 351 351 351 352 352 352 352 351 352 351 351 350 350 350 351 351 350 349 349 348 346 344 345 348 350 351 352 353 354 356 356
325 324 324 324 324 326 327 327 325 325 327 328 326 323 321 321 326 330 332 333 340 345 344 344 345 347 347 348 349 348 349 348 348 348 348 348 348 347 347 346 347 349 350 351 352 353 353 353 353 353 353 353 353 353 352 352 352 351 351 350 350 350 350 351 351 351 351 351 351 352 351 351 352 351 351 351 351 351 350 349 349 350 349 349 349 350 349 347 345 347 347 349 351 353 354 356 356
325 327 326 323 324 328 329 328 326 325 326 325 322 323 320 320 329 335 330 329 334 341 344 344 346 345 345 346 347 348 349 348 349 349 348 348 348 347 346 346 346 347 349 351 351 352 352 353 353 353 353 353 353 353 353 352 352 352 351 351 350 350 350 350 351 351 351 351 351 351 351 351 351 351 351 351 350 351 350 349 349 349 349 349 349 350 350 350 349 348 349 350 352 353 354 356 356
326 328 325 322 326 329 327 330 329 324 324 322 319 324 327 328 335 335 329 328 330 336 342 344 345 346 345 345 345 347 348 348 349 349 349 349 348 346 347 346 346 347 347 349 350 351 352 352 353 353 352 353 352 353 353 353 352 352 352 352 351 351 351 350 350 351 351 351 351 351 351 351 351 350 351 351 351 351 349 349 349 349 349 349 350 350 350 351 350 350 350 351 352 354 355 356 356
327 326 324 325 329 327 322 325 326 320 321 323 319 321 324 324 329 329 327 329 331 334 340 344 344 345 346 346 346 345 346 347 348 349 350 350 349 347 347 346 346 347 347 349 350 350 351 352 352 352 352 352 352 352 353 353 353 353 352 352 352 351 351 351 351 351 351 351 351 351 351 351 351 350 350 351 351 351 350 350 350 350 349 350 350 350 350 351 352 351 350 351 352 353 355 357 357
328 324 324 327 329 328 324 322 321 320 322 326 323 319 317 317 325 334 331 331 333 334 338 342 344 345 345 345 345 345 346 346 347 348 349 349 349 348 346 346 347 347 347 347 349 350 351 351 351 352 352 352 352 352 353 353 353 353 352 352 352 352 351 351 351 351 351 351 351 351 351 350 351 350 349 350 349 350 350 350 350 350 350 349 350 349 350 351 352 352 351 351 352 353 354 356 357
329 327 328 329 326 324 323 323 323 323 324 325 323 321 319 317 323 331 329 330 335 334 336 341 343 345 345 344 345 345 345 346 347 348 349 349 349 347 347 347 346 346 347 347 349 349 350 351 351 351 352 352 351 352 352 352 352 353 353 352 352 352 352 351 352 351 351 351 351 351 351 351 350 350 349 349 349 349 349 350 350 350 350 350 349 349 350 350 351 353 352 351 351 352 353 354 355
328 328 329 332 329 324 324 324 323 325 326 324 320 318 319 323 327 329 328 331 334 333 335 339 341 344 345 344 345 344 345 346 346 347 348 348 348 347 346 347 347 347 347 347 348 349 349 350 351 351 352 351 351 352 352 352 352 352 352 352 352 352 352 352 351 352 351 351 351 351 351 350 350 350 350 348 348 348 348 349 349 350 350 349 350 349 349 350 351 352 352 352 352 353 353 353 353
325 324 324 327 326 324 326 323 320 324 328 326 321 318 322 332 336 330 330 332 329 330 334 336 336 341 343 344 343 344 345 345 345 346 347 347 347 347 347 347 347 347 347 347 347 348 349 350 350 351 351 351 351 352 352 352 352 352 352 352 352 352 352 352 351 351 351 351 351 351 351 351 350 350 349 349 349 348 348 348 348 348 349 349 349 350 350 350 351 352 352 352 353 353 353 353 353
322 322 323 325 324 323 325 324 321 320 324 328 325 319 323 335 334 328 329 328 325 327 329 332 334 337 341 343 343 343 344 344 345 345 345 346 348 347 347 347 347 347 347 347 347 348 349 349 350 351 351 351 352 351 352 352 352 352 352 352 352 352 352 352 351 352 352 351 351 351 351 351 350 350 350 349 350 349 348 349 349 349 349 350 350 351 351 351 351 352 352 352 352 353 353 354 354
Wind_Speed
13 14 14 14 14 11 5 2 1 1 1 2 2 1 2 2 2 2 3 3 2 2 2 5 10 7 4 5 5 4 3 3 2 2 2 3 20 31 24 24 28 29 28 26 25 24 21 20 19 19 19 19 19 19 19 19 19 18 17 17 16 16 15 15 14 14 13 13 12 11 11 11 11 11 11 11 11 11 11 11 11 11 10 10 10 10 10 10 10 9 9 8 8 10 12 13 13
16 15 15 15 14 7 1 1 1 0 1 2 2 2 2 1 2 2 4 3 1 4 3 6 11 5 4 8 8 4 5 4 3 3 3 14 25 24 25 27 29 29 28 27 25 24 21 20 20 20 19 19 18 18 18 18 18 17 17 16 16 16 15 15 14 14 13 13 12 11 11 11 11 10 11 10 10 10 11 11 11 11 10 10 10 10 10 10 10 10 9 7 9 10 11 12 12
18 17 18 15 8 2 0 1 1 1 1 2 3 3 1 1 2 2 4 3 3 6 5 8 9 4 4 6 3 3 3 3 6 6 7 20 21 19 28 28 28 29 28 27 25 24 21 20 20 20 20 19 18 18 18 17 16 16 16 16 15 15 14 14 14 14 13 13 12 11 11 11 11 10 10 10 10 10 10 10 10 10 10 10 10 10 10 11 10 9 8 8 10 10 11 11 11
19 19 20 12 3 2 1 1 1 1 2 2 3 3 1 2 2 2 3 4 5 7 7 9 6 2 3 5 1 3 3 2 6 7 9 16 19 27 32 29 28 28 28 27 25 24 21 19 20 20 20 19 18 17 17 16 16 15 15 15 14 14 14 14 13 13 12 12 11 11 11 11 10 10 10 9 9 9 9 10 10 9 10 9 9 9 10 11 10 9 8 8 10 10 11 10 10
19 18 17 6 0 1 1 1 0 2 3 2 2 3 2 1 2 3 4 4 4 6 8 6 3 2 4 4 1 2 4 5 6 9 12 16 25 34 33 31 29 28 29 26 26 24 21 19 19 19 19 19 18 17 17 16 15 15 14 14 14 14 14 13 13 13 12 11 11 11 10 10 10 10 9 9 9 9 9 9 9 9 10 9 9 9 9 10 10 9 8 9 10 10 10 10 10
18 15 10 3 2 1 1 1 2 3 4 3 2 3 2 2 1 5 6 5 3 4 6 4 4 5 4 3 3 3 5 7 8 11 16 21 31 35 33 32 30 28 28 27 27 25 22 19 19 19 19 18 17 17 16 15 15 14 14 14 13 13 13 13 13 12 12 11 10 10 10 9 9 9 9 8 9 9 9 8 9 9 9 9 9 8 9 10 10 9 8 8 9 9 10 9 9
18 9 4 3 1 1 1 2 3 3 4 3 3 2 3 2 2 5 7 5 3 2 4 4 7 7 3 1 3 2 4 8 11 14 20 28 35 35 34 32 29 27 27 27 27 25 23 20 19 19 18 17 17 17 16 15 14 14 14 13 13 13 12 12 12 12 11 11 10 10 9 9 9 9 8 8 9 9 9 9 9 8 9 8 8 9 8 9 9 8 7 7 8 9 9 8 8
14 4 1 2 0 1 1 3 3 2 3 2 1 2 4 3 3 5 6 5 4 2 4 5 6 6 2 2 3 3 6 11 15 20 26 33 36 35 34 32 28 26 27 29 28 26 23 20 20 19 18 17 16 16 15 15 14 13 13 13 13 12 12 12 11 11 10 10 10 9 9 9 9 9 8 8 9 9 9 9 8 8 9 8 8 9 8 9 9 8 8 7 8 8 8 8 9
8 2 0 0 1 1 2 3 3 3 3 1 1 2 4 4 3 5 4 4 5 4 5 5 3 5 3 5 5 3 8 15 20 25 31 34 36 36 34 32 29 28 30 30 28 27 23 21 20 19 18 17 17 16 15 15 14 14 13 13 13 12 12 11 11 10 10 10 9 9 9 9 9 9 9 9 9 8 9 9 9 8 8 8 9 9 8 8 9 8 8 8 8 8 7 7 9
4 2 0 0 0 1 3 3 3 2 3 1 1 3 4 3 3 4 3 5 7 6 5 5 6 7 7 6 5 3 10 21 26 27 32 35 36 35 33 31 31 32 32 30 28 27 24 22 20 19 18 17 17 16 15 14 14 13 13 12 12 12 12 11 10 10 10 9 9 9 9 9 9 10 10 9 9 9 8 9 9 9 8 8 9 9 8 8 8 8 8 8 8 7 6 7 9
2 1 1 1 1 1 3 3 3 2 2 0 2 3 3 2 4 3 3 6 7 7 6 5 6 8 8 5 3 6 18 26 27 28 31 34 34 33 32 30 31 33 32 30 28 27 24 22 20 19 18 18 17 16 15 14 14 13 13 13 12 11 11 10 10 9 9 9 9 9 9 9 9 10 10 9 9 8 9 9 9 9 8 9 9 8 8 8 8 8 8 7 7 7 7 7 9
1 1 1 1 1 2 3 3 4 2 0 1 2 2 3 3 4 3 4 6 7 7 4 4 6 6 6 4 3 10 20 24 26 29 30 32 31 31 31 30 31 31 31 30 28 27 24 23 21 20 18 18 17 16 15 14 14 13 13 12 11 11 10 10 10 9 9 9 10 10 10 9 9 9 9 9 9 9 9 9 8 8 8 9 9 9 8 8 8 7 7 7 7 7 7 8 9
1 1 2 1 2 2 2 3 4 1 1 1 3 2 3 4 3 3 5 7 8 7 3 6 9 5 5 4 5 9 14 21 26 29 30 30 29 29 29 29 30 30 30 29 28 27 24 23 22 20 19 18 17 16 15 14 14 13 13 12 11 11 10 10 10 9 8 9 10 10 10 9 9 9 9 9 9 9 9 9 8 8 8 9 9 9 9 8 8 7 7 7 6 6 7 8 8
1 0 2 1 1 1 2 2 2 1 2 2 4 4 4 2 3 3 7 9 6 5 6 9 10 7 6 5 6 6 11 22 27 28 29 28 27 28 28 28 29 29 29 28 27 26 25 23 23 21 20 19 18 16 15 14 14 14 13 12 11 10 10 10 9 9 9 9 9 9 9 9 9 9 9 9 9 9 9 9 9 8 8 9 9 8 8 8 8 7 6 6 6 6 6 7 7
2 1 1 2 1 2 2 2 2 2 2 2 5 5 4 2 3 4 6 8 3 5 10 9 6 5 6 8 7 8 16 27 28 28 28 27 26 26 27 27 27 28 28 27 26 26 25 24 23 22 20 20 19 17 16 15 14 14 13 12 11 10 10 9 9 9 9 9 9 9 9 8 9 8 9 8 9 9 9 9 8 8 8 8 9 8 8 7 7 7 7 6 5 5 5 5 7
2 1 0 2 1 2 2 2 1 2 3 2 4 5 5 2 3 3 2 4 5 6 7 6 3 2 7 7 8 16 25 29 28 28 28 27 25 25 25 25 26 27 27 26 25 25 25 24 23 23 21 20 19 18 17 16 15 14 13 12 11 11 10 9 9 9 9 9 9 9 9 9 9 8 8 8 8 8 8 9 8 8 8 8 8 8 8 7 7 7 7 6 5 4 4 5 6
1 1 1 2 2 2 2 3 2 2 1 3 4 5 6 2 1 2 1 5 8 7 3 3 1 3 7 9 17 27 30 30 29 28 27 26 25 24 24 24 25 25 25 25 25 24 24 24 24 24 22 21 20 19 17 17 15 14 13 12 12 11 10 10 10 10 10 9 9 9 9 9 8 8 8 8 8 8 7 8 8 8 9 8 8 8 7 7 6 6 6 6 5 4 4 4 5
2 2 2 3 3 3 3 3 2 3 3 5 7 7 7 5 2 2 2 6 7 6 3 5 6 7 11 18 27 30 29 30 29 27 25 23 23 23 23 24 25 25 25 25 24 24 25 24 24 24 23 22 21 19 18 17 16 14 14 13 12 11 10 10 10 10 10 9 9 9 10 9 8 8 8 8 7 8 7 7 8 8 8 8 8 8 7 7 6 6 5 5 4 3 3 3 4
4 2 1 4 4 3 3 2 2 1 4 6 7 7 6 7 6 4 3 5 7 6 4 7 10 11 15 21 28 28 29 28 26 26 23 22 22 22 22 23 24 25 26 26 24 24 25 25 25 25 24 23 21 20 19 18 16 15 15 14 13 12 11 11 11 11 11 10 10 9 10 10 9 8 8 7 6 7 7 7 7 8 8 8 8 8 7 7 6 5 5 4 3 2 3 3 3
4 2 3 5 5 5 5 4 4 1 5 8 6 5 4 6 6 4 5 7 7 7 7 8 10 12 15 18 23 27 27 25 25 24 22 21 22 22 22 23 24 25 26 26 25 25 25 25 25 26 25 24 22 21 21 19 17 16 16 15 14 13 12 11 11 11 11 11 10 10 10 10 10 8 8 7 6 6 7 6 6 7 8 8 8 7 7 7 6 5 5 4 3 2 3 3 3
3 5 5 4 3 5 7 5 5 1 6 7 6 6 4 6 6 5 9 8 5 8 11 12 14 17 18 17 20 25 24 23 24 23 22 22 21 22 22 23 23 24 25 25 25 25 26 26 26 26 26 25 23 22 22 20 18 17 16 16 15 14 13 12 12 11 11 11 10 10 10 10 10 9 9 8 7 7 7 6 6 6 7 8 8 7 6 6 5 5 5 3 2 2 3 3 3
2 7 7 5 1 3 6 5 5 2 5 5 7 8 6 6 5 7 12 10 6 8 11 12 16 19 21 20 20 22 21 21 22 23 23 22 22 22 23 24 24 24 25 25 26 26 26 26 26 27 27 26 24 23 23 22 20 19 18 17 16 15 14 13 13 12 12 11 11 11 11 11 11 10 10 9 8 8 7 7 6 7 7 7 7 7 6 5 4 4 4 3 3 2 2 2 2
4 6 7 8 5 6 6 5 5 2 5 6 7 7 7 8 5 8 13 10 4 5 10 12 14 18 22 23 20 20 20 19 21 24 25 24 24 24 25 26 26 26 26 26 26 26 26 26 26 27 27 28 26 24 23 23 21 20 19 18 17 16 15 15 14 13 13 12 12 12 12 12 11 11 10 9 9 8 8 8 7 7 7 7 7 6 5 4 4 3 3 3 3 3 3 3 3
6 6 7 8 7 9 8 6 9 6 4 6 5 6 8 10 7 7 12 8 5 9 12 13 14 17 21 21 19 19 19 20 22 24 25 25 25 24 25 25 25 26 26 26 26 26 27 27 27 27 28 29 28 26 24 24 22 21 20 19 18 17 16 16 15 15 14 13 12 12 12 11 11 11 10 9 9 8 8 8 7 6 6 7 6 5 4 4 4 3 3 3 3 4 4 4 4
10 11 7 5 5 7 7 6 9 10 6 3 6 6 9 12 7 8 13 8 8 12 15 15 15 16 17 18 20 18 17 19 21 23 23 22 22 22 23 25 25 26 26 27 27 26 29 29 28 27 28 29 29 27 25 25 23 22 21 21 20 19 18 17 16 16 15 14 13 12 12 11 11 10 10 9 8 8 8 7 7 6 6 6 6 4 3 3 4 3 3 2 3 3 4 4 5
11 12 6 5 5 5 5 7 8 9 6 5 6 7 7 8 5 6 12 9 10 14 16 16 17 17 16 16 19 18 17 19 21 23 24 23 24 23 24 26 26 27 27 27 28 27 28 30 29 28 29 29 29 29 27 26 25 24 23 22 21 20 19 17 16 16 15 14 13 13 12 11 11 10 9 9 8 8 7 7 6 6 6 6 6 4 3 3 3 3 2 2 2 2 3 4 4
6 7 7 10 11 8 7 9 8 7 6 6 8 8 5 5 4 5 7 10 14 16 17 17 18 18 17 16 16 17 17 20 24 24 23 22 24 25 26 27 27 27 27 27 29 28 28 30 31 29 29 29 29 29 29 28 26 25 24 23 22 22 20 18 17 17 16 15 14 13 12 11 10 10 10 9 8 8 7 7 6 6 6 6 5 4 4 2 2 2 2 2 2 2 3 3 3
4 3 6 11 10 9 9 11 10 5 5 7 9 6 3 3 6 7 5 13 17 17 17 18 18 17 16 17 15 13 14 20 25 24 23 24 26 27 27 29 29 29 29 30 30 29 29 31 32 30 29 29 29 29 30 29 28 26 25 24 23 22 21 20 19 18 17 16 15 13 12 11 11 11 10 9 8 7 7 6 6 7 7 6 6 5 4 3 3 2 2 2 2 2 3 3 4
6 5 6 8 6 7 10 9 8 5 5 7 8 2 3 5 8 6 8 13 16 18 18 17 17 15 15 16 14 12 14 20 23 23 25 27 27 29 30 31 32 30 30 31 30 30 30 31 31 31 30 30 30 29 30 30 29 26 25 24 23 22 21 20 20 19 18 17 16 14 13 12 12 11 11 10 8 7 7 7 7 7 7 7 6 5 5 4 4 3 3 2 2 2 3 3 4
5 6 5 5 5 7 8 7 7 7 6 8 9 3 6 8 8 7 11 13 15 15 16 16 14 13 14 14 13 12 14 18 21 24 27 28 28 29 30 30 32 31 29 30 30 31 31 31 31 31 31 31 30 30 30 30 29 27 26 25 24 23 22 21 20 19 18 18 17 16 14 13 13 12 11 10 9 8 8 8 8 8 8 7 7 6 5 4 4 4 3 3 2 3 3 4 4
3 4 3 2 1 5 5 5 7 7 4 10 11 5 6 7 7 9 12 15 16 15 15 15 14 13 13 13 13 13 14 17 21 25 28 28 28 28 29 30 31 31 30 31 32 33 32 31 31 31 32 32 32 31 31 31 30 28 27 26 25 23 22 22 21 20 19 18 18 17 16 15 13 13 12 11 11 10 9 9 9 9 9 8 7 6 5 4 5 4 4 3 3 3 3 3 3
1 3 3 2 4 6 4 4 9 8 4 10 12 5 6 6 7 11 12 15 17 15 15 15 15 15 14 13 13 13 13 17 22 25 27 28 28 28 29 30 32 32 32 33 33 32 32 32 32 32 32 33 33 32 32 32 31 29 28 26 26 24 23 22 21 20 19 19 18 17 16 15 14 13 12 12 12 12 12 11 10 9 9 9 7 6 6 5 5 4 4 4 3 3 3 3 4
2 3 4 2 5 5 4 3 7 10 4 8 11 5 3 4 8 12 12 16 16 14 15 15 15 15 15 13 13 13 12 14 18 23 27 29 28 29 30 31 33 34 33 33 33 33 33 33 32 32 33 35 34 33 32 32 32 30 29 27 26 25 24 23 22 20 20 19 19 17 16 16 15 14 13 12 12 13 13 12 10 10 10 10 8 7 6 6 5 5 5 5 4 3 2 3 4
3 2 4 3 5 4 2 4 5 8 6 7 11 8 5 4 9 13 13 16 15 14 15 16 15 14 14 13 13 13 13 14 15 21 28 29 29 30 30 31 33 33 33 33 34 35 35 33 33 33 33 34 34 34 33 32 32 31 29 28 27 26 25 23 22 21 21 20 19 18 16 16 16 15 14 13 13 13 13 13 12 11 10 10 9 8 6 6 6 5 6 5 5 4 2 3 4
5 4 3 3 4 4 4 4 3 6 7 8 10 11 9 4 8 14 14 15 16 15 16 15 15 15 14 13 13 14 14 15 16 22 29 30 30 30 30 31 32 33 33 33 34 34 34 33 33 33 32 32 33 33 32 31 31 31 30 28 27 27 26 24 23 23 22 21 20 18 17 17 17 16 15 13 13 13 14 14 13 12 11 10 9 8 7 7 7 6 6 5 5 4 1 2 3
7 6 4 4 4 5 5 5 3 6 6 7 9 11 12 6 8 13 14 15 15 14 14 13 13 14 13 13 13 14 16 16 18 24 29 30 30 30 30 31 31 33 33 33 33 33 34 33 33 33 32 32 32 31 30 30 30 30 30 29 28 29 28 26 25 24 23 23 21 19 18 18 18 18 16 14 13 13 14 14 13 12 12 11 10 10 9 8 8 8 7 6 6 5 3 2 2
4 4 4 5 5 6 5 4 4 5 5 7 10 11 12 9 9 13 14 14 13 12 13 13 13 13 13 14 14 16 16 14 17 24 28 29 30 30 30 30 31 32 33 34 34 34 35 35 34 34 34 33 32 32 31 31 31 31 30 30 31 31 30 28 27 26 25 23 22 20 19 19 19 19 18 16 15 14 14 14 13 13 13 12 11 10 9 9 9 9 8 7 7 6 5 3 2
3 2 3 4 5 6 5 3 3 4 5 6 8 9 11 9 9 11 13 14 14 15 15 14 15 15 13 15 17 16 13 11 14 19 24 28 29 30 31 30 32 33 33 35 36 36 36 36 36 36 34 34 34 35 34 34 34 34 33 33 33 33 32 31 30 28 26 24 22 21 20 19 19 20 19 18 16 16 15 15 14 13 13 13 12 11 10 9 10 10 10 9 8 7 6 4 3
7 4 3 4 3 3 6 5 3 3 4 4 6 7 10 9 8 10 14 16 16 16 18 18 18 17 15 16 16 14 13 12 15 17 21 28 29 31 31 30 33 34 34 35 36 36 36 36 37 36 35 35 36 36 36 36 36 36 34 33 33 32 31 31 30 28 26 24 23 22 20 20 20 21 21 20 19 17 17 17 16 14 13 13 13 13 12 11 11 11 11 10 9 8 6 5 5
8 6 5 5 3 2 4 4 2 3 5 3 4 5 8 6 5 8 14 16 13 14 17 17 17 19 20 20 17 15 16 16 16 17 19 24 28 30 31 31 32 33 33 35 36 36 36 37 37 36 37 37 37 37 37 37 35 34 33 31 29 27 27 27 27 26 26 25 24 23 22 21 21 22 22 22 21 19 18 18 17 16 15 14 14 14 13 12 12 12 11 11 11 10 9 6 7
8 8 8 7 6 5 3 3 3 3 3 2 3 2 6 5 6 8 10 11 11 11 13 12 13 17 16 15 15 16 17 17 17 18 18 20 25 30 32 32 32 33 34 35 37 38 37 38 39 38 38 38 38 38 37 36 33 31 29 26 23 22 21 21 22 24 25 26 26 25 24 22 22 22 23 23 22 20 19 19 19 18 17 16 15 14 14 13 13 12 12 11 12 12 11 9 8
7 10 11 10 8 6 3 3 4 4 4 2 3 2 6 4 8 11 7 9 12 10 12 15 15 14 12 11 14 15 16 15 16 18 18 19 23 28 31 32 33 34 36 37 39 39 38 38 39 38 38 37 38 38 37 35 33 31 29 26 23 22 21 21 24 26 28 29 29 28 26 23 22 22 23 23 22 21 20 20 21 20 19 18 16 15 14 14 13 13 12 12 12 13 12 11 10
7 9 10 11 8 5 1 1 1 1 3 4 1 4 5 4 6 10 8 12 16 13 14 18 15 13 13 13 14 15 15 15 15 16 17 18 22 25 28 33 35 35 36 37 38 38 38 38 38 39 38 37 37 37 36 35 34 32 31 31 29 27 26 27 30 31 31 32 30 28 27 25 24 23 23 23 22 21 19 19 20 21 21 20 18 17 16 15 14 14 13 13 12 12 13 13 12
7 5 8 8 7 7 5 3 3 3 3 5 2 4 3 4 6 7 9 13 15 15 16 18 15 14 16 16 15 16 17 17 15 16 17 18 22 26 29 33 36 35 35 35 36 38 39 39 39 40 39 38 37 36 36 37 35 34 33 33 31 30 30 30 30 30 31 31 30 28 27 27 26 24 24 24 24 22 20 19 19 20 21 21 20 19 18 17 15 14 14 13 13 12 13 13 13
5 6 9 8 8 8 6 4 4 3 3 6 4 4 3 5 6 3 6 11 13 16 19 18 17 18 18 17 17 17 18 17 17 17 18 18 22 28 31 33 34 34 34 35 37 38 39 39 39 39 39 38 37 37 37 38 37 36 35 34 32 31 30 28 27 27 28 29 29 28 27 27 27 26 25 25 26 25 23 21 19 20 21 21 22 21 20 18 17 16 15 14 14 13 13 13 13
4 5 5 6 7 7 5 6 5 2 5 9 7 5 3 6 5 2 3 8 12 14 15 15 17 19 18 18 18 18 16 15 16 16 17 19 24 28 30 30 32 33 35 36 36 36 37 38 38 39 39 38 38 38 38 39 39 38 36 35 33 31 29 27 25 25 26 26 27 28 28 28 28 28 27 26 27 27 25 23 22 21 20 21 22 23 22 21 19 18 16 15 14 14 13 13 13
5 4 2 1 2 4 4 4 4 3 8 11 9 8 6 6 6 4 4 7 11 11 10 12 14 16 16 16 16 16 15 14 15 15 16 18 23 28 29 30 32 34 35 35 35 36 37 38 38 39 40 39 38 39 39 40 40 39 37 36 35 33 29 27 25 25 26 27 27 29 29 29 29 29 29 27 27 27 27 26 24 23 21 21 22 23 24 23 21 19 17 16 15 14 14 13 13
6 5 5 2 2 1 2 1 3 7 9 8 8 8 8 9 7 5 6 9 11 11 11 13 16 17 17 17 16 16 16 16 16 15 14 15 18 23 27 30 32 34 34 35 36 36 37 38 38 39 39 39 38 39 40 40 40 39 38 37 36 34 31 29 28 28 28 29 29 30 30 29 29 29 29 28 27 27 28 27 26 25 23 22 21 22 23 23 22 20 19 17 17 16 15 14 14
8 5 6 5 3 1 4 3 3 8 7 5 6 8 8 9 8 8 9 10 11 12 13 14 17 20 19 19 18 16 15 16 15 15 14 14 15 18 23 28 31 33 34 35 36 36 36 37 38 38 39 40 39 39 40 40 40 40 39 38 37 35 33 31 31 30 30 31 31 31 31 30 29 29 30 30 29 28 28 27 27 27 25 23 21 21 22 22 23 22 21 19 18 16 16 15 15
9 7 6 6 5 5 6 5 3 5 5 4 6 6 5 5 6 12 15 14 12 12 12 14 16 19 19 19 19 17 16 16 15 14 14 15 16 17 22 27 29 31 34 36 37 37 36 37 38 39 39 40 40 39 40 40 40 41 40 39 38 35 34 33 33 33 32 32 32 32 32 32 31 31 32 31 30 28 28 27 27 26 26 24 21 20 20 21 22 22 22 20 19 17 16 16 16
8 8 7 6 6 5 5 3 4 4 4 4 4 5 5 4 5 10 15 16 12 11 13 14 14 16 16 16 16 16 16 15 14 14 16 16 18 20 23 27 29 31 34 36 36 37 37 37 39 40 40 40 41 40 40 40 41 41 40 39 37 36 36 35 34 34 33 33 33 33 33 34 33 33 33 32 30 29 28 27 26 26 26 25 22 21 20 20 21 21 21 21 19 18 17 17 17
7 7 7 8 5 4 2 3 5 4 2 4 4 4 4 4 5 6 7 10 11 13 14 13 14 14 13 11 12 14 15 15 14 13 16 17 18 20 24 26 28 31 34 36 37 38 39 38 39 41 41 41 41 41 40 41 41 40 39 39 38 36 36 35 34 34 34 34 33 33 34 34 34 34 33 32 30 29 28 27 26 27 27 26 24 22 22 21 21 21 21 21 20 19 18 18 18
4 7 8 7 5 5 4 4 2 3 4 5 3 4 3 2 6 5 3 6 9 12 12 13 14 13 12 12 13 14 14 15 15 14 16 17 17 20 25 27 29 31 34 37 39 40 40 39 39 40 40 40 41 42 41 41 40 39 39 39 38 37 36 36 36 36 35 34 33 33 34 33 34 33 33 32 31 30 29 27 26 27 27 27 25 24 23 22 21 21 22 22 21 20 19 19 19
4 6 8 5 5 4 5 4 2 3 6 4 2 5 5 3 6 4 4 6 9 10 11 13 13 12 12 13 14 16 16 17 18 18 17 16 16 19 24 29 32 35 36 38 40 40 40 40 40 40 40 40 41 41 41 40 40 39 39 39 39 38 38 37 37 37 35 34 33 33 33 33 33 33 32 32 31 30 29 28 27 27 27 27 26 25 24 24 23 22 22 22 22 20 20 21 20
7 5 8 7 4 6 6 4 5 5 5 4 3 4 5 6 6 4 7 10 10 11 11 11 12 12 12 14 15 16 16 15 16 17 16 15 15 18 24 28 32 35 36 38 39 39 39 40 40 41 42 42 42 41 40 40 39 39 38 38 39 39 39 38 37 36 34 34 34 34 34 34 33 32 32 31 31 30 30 29 29 28 28 28 28 27 26 25 25 24 24 23 23 22 22 22 22
8 5 6 6 4 6 6 3 3 5 4 3 3 3 4 7 6 7 11 12 11 12 11 10 12 13 13 13 14 14 14 14 15 16 16 16 17 20 27 31 33 35 36 36 37 38 39 39 39 39 41 41 41 41 40 39 39 38 37 36 38 38 39 38 37 35 35 35 36 35 35 34 33 32 32 31 31 31 30 30 30 29 29 29 29 29 28 27 27 26 25 24 24 23 24 24 23
6 5 6 6 4 2 4 3 2 4 4 3 3 4 5 5 5 10 13 12 13 13 12 12 12 13 13 14 14 13 14 15 16 16 17 18 18 22 29 33 34 33 32 32 35 37 38 38 38 39 39 39 39 40 40 39 38 37 36 36 37 38 38 38 36 36 36 36 36 35 34 33 33 32 32 31 31 31 31 30 30 30 30 30 30 29 29 29 28 27 27 26 25 25 25 26 25
3 4 4 7 5 3 4 5 3 3 4 4 3 4 6 5 4 9 11 11 12 13 13 13 13 14 14 14 15 14 14 16 17 17 17 18 18 19 25 29 29 29 30 33 36 37 37 39 39 40 39 39 40 40 40 39 38 38 38 37 37 37 37 37 36 36 36 36 35 34 34 32 32 33 32 32 32 32 32 31 31 30 30 30 30 30 29 29 29 29 28 27 27 27 27 27 27
Wind_Direction
150 152 154 156 148 142 153 209 241 191 255 303 271 245 245 210 154 167 135 142 155 166 158 126 135 140 128 123 141 113 66 143 138 137 175 158 146 151 159 159 153 150 148 142 139 136 137 143 143 141 139 136 134 132 132 130 129 127 125 126 126 127 127 128 128 127 127 125 124 124 124 124 123 123 124 123 124 123 120 117 113 112 109 105 104 104 104 100 97 96 96 105 111 112 118 120 118
153 155 154 152 149 150 132 199 268 24 277 301 265 205 234 194 160 189 157 167 162 150 159 138 135 115 83 112 127 102 47 33 76 101 104 133 138 148 159 159 153 152 150 146 143 138 141 146 144 143 140 136 135 132 131 130 127 126 126 125 125 126 125 124 123 122 122 121 119 120 120 120 119 119 120 122 124 123 119 115 113 111 107 105 103 104 102 99 97 95 95 102 108 112 116 116 116
156 156 154 152 151 212 323 149 268 12 268 264 262 238 214 146 194 199 149 147 124 134 133 135 128 89 90 115 116 84 74 49 109 106 121 139 138 153 161 159 155 153 152 150 146 141 144 147 146 144 140 138 135 134 132 129 128 127 126 125 125 124 122 121 119 119 119 118 117 117 117 117 117 116 117 120 121 118 115 112 111 108 106 106 105 106 106 101 97 96 98 101 109 115 114 114 114
159 159 157 153 139 257 217 156 257 256 249 239 268 268 217 176 189 134 110 107 122 129 126 134 119 21 94 124 110 79 107 119 131 124 138 154 152 156 160 159 156 154 154 154 149 145 146 148 149 145 141 139 135 135 133 130 130 129 128 126 125 123 122 122 121 121 120 119 119 118 118 118 116 116 117 116 113 109 109 109 107 106 105 106 108 109 109 105 101 99 99 99 109 116 116 116 113
160 162 163 167 165 204 223 192 212 233 236 194 243 266 208 164 149 113 105 100 116 131 128 131 104 32 76 93 94 114 122 117 145 146 139 156 155 155 159 159 156 155 155 155 152 149 149 150 151 147 142 139 137 137 135 133 132 131 131 128 126 125 125 124 124 123 121 121 121 122 120 119 119 118 117 110 107 105 105 107 108 109 108 108 110 112 110 107 104 102 97 97 110 114 113 112 109
157 165 178 235 304 229 266 230 234 240 247 185 200 267 184 139 128 115 115 100 71 115 115 99 107 109 83 56 47 119 148 129 152 160 145 151 154 156 158 158 156 155 156 155 154 152 151 153 152 148 144 141 139 139 137 135 135 134 133 130 128 128 127 126 125 123 122 121 121 122 121 121 121 116 112 108 107 109 111 110 108 112 116 116 116 117 114 110 105 102 98 99 108 109 108 109 108
154 163 195 255 286 272 301 271 257 244 258 199 186 245 166 152 145 123 128 122 91 73 76 103 122 105 81 82 71 82 151 143 150 160 153 151 153 156 157 157 155 154 156 156 155 154 153 155 154 151 147 143 142 142 140 138 137 135 133 132 130 130 129 127 125 123 121 121 121 120 120 119 118 113 111 111 112 115 118 113 110 116 120 121 121 120 119 113 106 102 99 101 105 106 106 107 105
160 170 195 227 301 360 305 282 261 226 249 219 169 187 152 151 148 132 141 134 123 103 94 135 129 95 57 60 88 56 100 133 148 153 151 150 152 155 157 157 153 154 157 156 156 155 154 156 156 153 150 146 146 145 142 140 139 136 135 133 132 132 128 125 125 124 123 123 120 117 117 115 114 114 114 116 116 118 120 116 114 120 122 125 125 121 120 115 109 103 100 105 106 104 101 97 99
176 223 131 191 13 320 278 274 263 237 244 246 73 150 144 149 140 125 128 116 121 122 126 145 109 102 102 74 95 64 91 129 142 146 148 150 153 155 158 159 155 155 157 157 157 156 155 158 158 155 152 149 148 147 144 143 142 140 137 136 134 133 129 128 128 127 127 125 121 119 117 115 115 116 117 117 115 117 119 118 117 119 120 123 123 118 117 115 111 106 103 107 110 105 99 93 98
191 235 308 188 157 302 286 259 246 245 248 208 120 151 150 156 132 115 106 121 128 114 117 100 72 110 121 96 98 95 120 135 139 142 149 152 154 156 158 161 159 157 158 158 159 157 155 158 159 157 154 151 150 147 146 145 144 143 140 137 133 133 131 129 129 129 129 126 125 122 119 118 116 114 114 113 112 115 116 115 116 116 117 118 120 121 119 116 113 110 107 112 113 107 100 97 100
185 180 280 278 211 279 258 256 272 266 262 38 110 151 170 150 116 116 93 115 123 114 124 93 89 116 110 103 98 121 133 138 141 144 151 153 155 157 158 160 161 159 159 160 160 157 155 159 161 159 155 153 152 150 149 148 147 145 140 138 134 133 131 130 130 129 129 127 127 124 123 122 115 110 109 109 110 115 117 117 117 115 115 116 120 123 120 117 116 114 113 116 116 106 101 101 100
202 141 98 284 228 223 232 271 287 282 262 142 154 173 169 135 119 136 114 118 123 121 144 127 134 132 101 110 116 126 134 140 146 147 151 153 154 157 158 160 161 162 161 160 161 158 156 160 163 161 158 155 154 152 152 151 148 144 141 139 136 136 133 133 131 129 129 126 125 123 123 121 114 111 110 112 111 113 113 113 116 114 112 113 119 124 124 121 119 117 117 120 121 113 108 105 101
229 142 101 251 203 205 255 279 277 298 345 192 166 168 146 133 140 145 112 125 137 134 147 137 145 133 98 115 122 133 139 145 149 149 151 152 154 157 158 160 162 163 163 163 162 159 158 162 165 162 159 157 156 154 154 153 149 145 144 142 140 139 137 136 134 133 131 124 122 121 120 117 115 116 115 112 109 109 109 110 115 114 110 112 118 124 127 124 120 120 122 126 127 120 114 109 105
209 156 117 259 230 245 257 263 265 200 277 214 134 138 147 124 135 134 117 133 148 141 130 133 137 108 105 133 133 151 148 150 152 150 151 151 153 155 157 160 162 164 165 166 165 161 161 165 167 163 161 160 157 156 158 155 150 149 147 145 143 141 140 139 138 137 133 126 124 122 120 118 118 119 115 113 112 110 110 112 116 116 110 112 117 121 122 119 121 127 130 133 133 128 120 113 109
199 354 126 269 314 298 242 222 233 166 242 197 135 142 132 80 117 111 122 139 134 126 123 133 146 101 148 171 157 167 153 152 153 149 150 149 152 153 155 159 161 165 167 168 167 164 163 167 169 166 165 163 160 160 160 157 153 154 150 148 145 144 144 141 142 141 138 135 131 127 124 122 120 118 117 118 117 113 110 111 112 113 109 109 114 117 115 117 126 132 136 141 139 134 126 117 109
202 319 166 277 274 273 237 214 171 153 236 163 138 148 115 64 107 96 123 131 114 136 131 145 192 136 167 176 146 153 152 152 151 149 148 146 148 150 154 158 161 166 168 170 169 168 167 169 172 169 168 167 165 163 162 159 157 158 154 151 148 148 149 145 145 143 143 141 135 131 129 127 125 123 122 118 114 113 114 114 113 114 113 110 110 113 116 123 131 135 140 148 147 136 129 120 112
169 252 237 264 229 236 219 205 190 154 197 135 152 165 127 98 62 81 95 93 123 151 130 121 120 103 143 139 136 146 150 151 150 149 147 145 147 149 153 159 162 166 170 173 172 172 171 171 174 172 171 171 168 166 165 162 160 161 158 154 152 153 152 148 147 145 146 145 140 138 138 136 131 130 125 120 120 121 122 119 118 117 118 118 117 121 124 129 134 138 143 149 152 146 138 129 116
182 197 222 249 220 226 211 202 203 144 154 158 176 178 143 148 152 151 110 80 126 144 91 93 68 76 111 123 136 145 149 151 151 150 150 148 150 152 157 161 164 168 171 174 175 175 175 175 176 175 173 174 172 169 168 165 164 166 163 159 156 158 156 152 152 150 149 149 150 150 148 145 139 137 133 132 132 129 130 125 121 120 119 120 121 122 121 124 128 134 140 145 153 157 156 147 127
207 194 201 236 214 222 232 239 265 153 169 165 174 180 154 158 155 165 146 119 148 137 99 99 89 97 112 125 138 146 151 153 155 155 155 154 156 158 160 164 167 170 173 175 177 178 180 179 179 179 177 177 176 173 172 170 169 170 168 164 162 163 161 158 159 157 157 158 160 160 157 154 148 143 137 138 138 128 127 124 123 123 122 121 120 120 119 121 119 123 130 139 156 168 174 171 152
209 214 229 240 233 258 276 254 257 293 150 158 171 172 148 159 154 166 148 138 169 158 143 131 124 131 130 136 144 149 154 156 158 158 159 160 161 162 163 167 170 172 174 176 178 180 182 182 182 182 180 180 180 176 176 175 175 175 173 170 168 169 168 165 166 165 166 167 166 166 164 160 154 148 142 143 147 135 128 125 125 128 128 127 126 125 122 121 118 123 131 142 176 187 179 181 176
176 205 220 239 224 247 274 271 258 224 146 158 161 147 148 165 157 165 143 136 198 193 177 162 150 148 143 147 151 155 159 159 162 163 164 164 164 165 167 170 173 174 174 175 179 182 184 185 184 185 184 183 183 181 179 180 180 179 179 177 174 174 174 172 173 172 172 174 169 168 166 160 157 156 155 156 159 150 140 138 141 141 138 134 131 126 118 116 116 124 131 142 180 201 184 180 181
206 224 231 250 256 237 275 298 269 228 140 144 151 157 157 158 163 171 160 166 206 198 183 164 153 152 150 154 155 159 162 163 167 167 168 169 167 168 170 172 173 174 175 178 181 183 185 187 187 187 187 187 187 185 183 184 184 183 184 184 181 179 180 180 180 177 175 174 169 167 165 161 161 163 164 165 168 164 154 154 155 152 146 141 137 130 119 115 117 121 128 144 166 195 201 199 198
243 241 239 240 244 254 274 300 290 306 140 162 170 170 142 148 183 183 180 187 172 142 154 149 151 154 151 153 157 163 167 169 171 172 172 171 171 171 172 173 174 175 177 180 182 183 186 188 189 189 189 190 191 189 187 188 188 187 188 188 187 185 185 187 187 182 177 174 169 167 167 166 166 168 169 167 170 170 162 161 158 152 150 149 148 141 132 129 131 131 136 154 166 187 213 230 246
242 250 249 238 236 249 262 283 290 293 204 184 163 152 151 173 184 181 196 196 130 124 136 140 145 151 152 155 162 168 170 172 173 174 175 174 174 173 173 175 175 176 178 181 184 184 188 191 191 191 192 192 193 193 191 192 192 190 192 194 194 191 191 193 192 187 181 178 175 172 171 171 172 171 171 168 171 174 167 166 163 159 159 161 161 156 151 143 141 140 145 160 171 188 208 226 246
233 239 246 248 242 253 261 257 264 269 247 164 149 167 181 188 162 171 202 190 141 134 133 140 144 150 159 162 164 168 169 172 172 172 175 176 175 174 176 178 177 179 181 182 184 186 190 193 192 193 195 194 196 196 195 196 196 194 195 198 198 196 196 196 194 192 188 186 183 181 179 179 178 175 171 168 174 178 176 175 172 170 171 175 178 174 167 158 153 147 145 161 172 183 198 217 236
224 232 253 274 266 270 270 254 247 255 243 146 169 211 208 190 143 183 205 176 141 137 138 145 148 156 166 168 168 169 170 172 173 173 175 176 175 177 179 181 181 183 184 184 185 187 191 194 195 196 197 198 198 199 199 199 201 199 199 201 201 200 199 197 196 196 195 193 190 188 188 188 186 181 175 172 176 180 183 184 179 179 180 183 186 183 178 173 170 156 149 164 176 186 199 213 226
218 225 256 261 268 270 266 267 257 252 239 174 185 227 231 185 177 223 206 160 143 140 147 151 153 163 168 171 172 171 173 175 174 172 172 175 179 181 181 183 185 186 186 186 187 189 191 194 197 198 199 201 201 201 202 203 205 203 202 203 204 203 201 198 197 198 199 198 194 192 194 196 195 191 186 184 183 184 188 190 187 187 185 184 184 186 190 197 201 184 171 189 209 215 218 228 234
278 253 264 253 260 260 250 259 255 245 237 198 181 223 269 167 202 227 181 153 149 147 154 158 160 166 168 172 173 173 177 176 175 174 176 180 183 183 183 185 186 186 188 189 190 189 191 195 198 198 200 202 203 204 205 206 208 207 204 204 205 206 203 200 200 199 200 200 197 196 199 202 204 201 198 198 196 197 198 196 196 193 187 185 184 188 197 215 225 214 211 213 226 234 240 249 259
275 272 280 270 283 268 244 243 239 215 222 190 154 206 255 204 213 202 157 153 152 152 158 163 165 165 168 172 172 175 177 177 179 182 184 184 185 185 186 188 187 187 189 190 191 191 193 195 197 199 201 204 206 207 207 209 210 209 207 205 205 207 206 204 203 201 201 201 200 200 202 206 209 208 206 208 210 211 210 206 203 194 185 185 187 194 206 222 228 224 225 229 234 248 260 264 271
243 242 252 270 308 287 247 223 210 202 206 165 147 213 236 221 223 175 152 154 150 154 162 165 166 166 168 172 173 178 178 180 184 187 188 187 188 189 188 189 189 188 189 190 192 193 194 195 197 199 201 205 208 208 209 210 211 211 210 207 206 208 209 208 206 206 205 204 204 204 206 209 212 213 213 216 220 221 220 214 207 195 185 187 192 202 215 223 228 230 238 250 253 252 261 261 261
218 207 215 208 240 276 245 191 182 194 199 158 161 231 236 222 215 172 158 157 155 159 168 167 167 169 170 175 176 179 183 186 189 189 190 190 189 190 190 190 190 189 189 190 193 195 195 196 197 199 202 206 208 209 210 211 212 212 211 210 208 209 211 212 210 209 210 209 208 208 209 212 214 216 217 221 227 228 227 221 211 199 192 196 202 211 217 222 230 238 246 256 263 261 255 243 237
260 175 226 185 185 255 269 195 180 192 210 162 168 230 247 227 196 175 166 162 161 164 170 170 170 172 173 177 178 181 186 187 189 191 193 192 191 191 191 191 191 191 191 192 193 195 196 197 198 199 202 205 208 210 211 212 214 213 214 213 211 211 212 214 213 212 212 211 211 211 213 214 215 217 219 223 230 233 231 226 216 204 202 205 210 219 225 232 242 250 249 250 263 270 254 228 221
307 198 232 180 179 237 282 265 210 194 184 170 185 210 248 226 181 174 172 167 167 166 171 174 174 175 175 178 180 182 184 185 190 193 194 193 192 193 192 192 193 193 194 193 193 194 196 197 198 200 202 205 208 210 211 213 214 215 216 216 215 214 215 217 216 216 215 213 213 214 215 217 217 217 221 226 232 233 232 228 221 210 209 212 215 224 234 242 249 253 247 243 253 256 230 220 219
269 214 224 220 191 214 244 287 253 192 173 183 201 215 236 222 170 171 178 172 170 171 175 177 177 178 179 179 181 182 184 188 192 192 193 193 193 194 194 194 194 195 195 195 195 195 196 197 199 201 203 205 207 210 212 213 215 216 218 220 220 219 218 219 220 220 217 216 216 217 219 220 219 219 222 227 231 232 232 230 224 217 214 216 219 226 238 246 250 251 241 240 249 244 213 213 215
205 193 195 232 221 224 218 250 250 174 183 194 199 218 234 227 168 174 181 177 176 179 178 177 179 180 180 182 184 185 188 194 194 191 191 192 193 193 194 194 194 195 196 197 197 197 196 197 199 201 203 205 206 209 211 213 215 217 219 222 224 223 221 220 222 223 220 219 220 221 223 224 222 220 221 225 229 230 230 228 225 220 217 219 223 228 238 245 247 247 239 239 250 252 249 218 211
173 183 181 191 215 244 234 238 229 161 182 211 201 216 225 207 180 183 181 182 184 183 179 178 181 181 182 186 187 188 193 197 193 190 191 192 193 193 193 194 194 195 196 197 197 197 197 197 198 200 203 204 204 205 207 210 213 216 219 221 223 224 222 220 221 222 221 223 224 225 228 228 224 220 219 223 228 229 227 225 224 221 219 221 225 230 236 242 242 244 247 247 252 257 257 240 231
154 168 203 201 212 251 248 245 243 170 174 224 213 217 223 203 189 190 181 183 188 186 183 181 181 183 187 190 191 193 196 196 189 189 192 192 193 193 192 193 193 194 196 196 196 197 197 197 197 199 201 202 201 202 204 206 210 212 215 218 221 222 221 220 221 221 222 223 226 229 231 229 225 221 222 226 230 231 228 225 224 225 225 224 229 235 237 241 240 242 250 251 253 259 252 243 243
251 192 230 238 224 248 260 252 254 189 182 238 224 221 231 212 193 191 179 183 194 191 185 184 185 188 191 193 195 195 192 186 185 189 193 192 193 193 192 193 192 193 195 196 196 197 198 197 198 199 199 200 202 203 204 206 210 212 213 216 219 221 220 220 219 219 221 223 226 230 232 230 227 226 227 229 232 233 231 227 226 227 228 229 232 237 237 240 241 239 243 247 251 255 246 234 224
247 243 245 263 234 256 279 256 245 198 189 247 227 217 236 222 196 189 183 189 198 194 188 186 185 187 192 196 196 191 186 184 187 190 192 192 193 192 192 193 194 194 195 196 197 197 197 198 199 200 199 200 203 204 205 207 211 214 215 217 218 219 220 220 220 221 222 224 227 229 232 234 232 231 232 234 235 235 234 232 230 228 228 230 232 235 235 237 239 237 237 242 247 252 249 233 218
228 228 229 246 225 200 258 254 257 216 201 215 200 216 242 224 190 195 198 199 199 198 197 193 187 188 193 195 191 185 186 189 189 190 191 192 192 192 193 194 194 194 194 195 196 196 197 199 200 200 200 201 203 204 207 208 210 213 216 219 219 219 222 224 225 227 227 228 228 228 231 234 234 234 235 236 237 238 239 235 233 232 229 228 232 235 235 235 236 235 234 237 241 247 254 244 223
220 222 223 230 225 216 248 301 331 304 251 195 144 265 278 217 195 214 207 203 206 203 202 204 202 200 198 192 189 188 189 189 188 190 191 191 193 194 193 193 193 194 195 195 195 196 197 199 200 200 201 202 203 205 207 207 207 209 212 215 218 218 221 224 225 227 229 228 228 227 228 229 231 232 234 237 239 241 243 239 235 235 233 231 232 235 237 238 237 236 238 239 240 244 255 258 235
229 224 219 221 225 228 273 338 353 355 315 272 161 230 285 241 208 217 194 191 209 203 197 207 210 205 198 192 195 197 194 191 191 191 191 192 194 194 194 194 193 195 197 197 196 197 198 199 200 201 201 202 204 205 205 205 204 205 206 206 208 209 211 216 218 221 224 224 224 225 226 227 228 230 233 236 238 242 245 241 237 237 236 234 233 235 237 239 238 238 242 243 244 248 254 259 247
238 220 204 213 218 212 176 75 238 234 255 273 188 193 262 301 234 220 185 189 206 199 200 210 207 200 197 197 198 198 196 194 194 194 192 192 192 193 195 195 195 197 198 197 197 198 199 199 200 200 202 203 204 204 203 203 203 203 205 206 207 207 207 212 217 220 221 221 222 223 225 226 227 230 233 235 237 240 243 242 240 239 239 237 235 235 236 237 238 240 244 245 247 253 253 253 251
236 182 162 191 204 205 191 167 221 239 266 281 250 164 236 283 258 229 185 194 207 200 206 210 203 201 202 202 200 198 199 195 193 195 193 192 192 193 196 197 198 198 197 196 197 198 199 199 200 200 201 203 203 203 202 202 202 203 205 207 209 211 211 213 216 218 220 220 221 222 225 227 228 230 233 236 237 238 241 241 241 241 241 240 237 236 237 238 240 242 245 245 247 253 253 254 255
222 142 149 171 189 205 189 174 226 267 312 275 232 156 231 261 270 269 181 197 213 209 211 208 201 203 203 203 203 201 202 198 196 196 194 194 194 195 196 197 199 198 197 197 198 198 199 199 200 200 201 202 203 203 202 203 204 204 206 207 209 213 215 216 217 216 217 218 220 222 226 227 228 229 232 236 238 239 240 240 241 242 243 242 239 237 238 240 243 245 245 246 249 253 253 255 256
193 139 152 153 174 191 171 175 205 231 254 253 230 173 219 265 268 268 171 198 217 215 214 209 204 206 204 203 204 203 201 200 201 201 197 197 195 194 196 197 198 198 199 199 198 198 198 199 199 200 201 201 202 202 202 203 205 206 206 206 208 211 214 215 216 216 215 216 219 221 224 226 227 228 230 235 238 239 240 241 241 242 243 244 241 239 239 241 244 245 247 250 254 257 256 256 256
167 158 193 68 161 157 152 167 157 205 242 244 226 181 190 256 252 209 192 207 211 209 212 211 208 210 208 207 206 203 199 199 202 203 201 198 194 193 194 195 197 198 199 199 198 198 198 198 199 200 202 201 201 202 202 204 205 206 207 208 209 210 210 211 211 213 214 214 217 219 222 225 227 227 230 234 237 238 239 240 241 241 242 244 243 242 241 243 246 246 248 252 256 259 257 258 258
179 171 177 226 313 92 141 126 148 216 239 239 216 177 186 236 245 215 219 220 208 204 205 204 205 206 207 208 207 203 199 199 199 200 199 192 191 193 194 195 196 196 197 197 197 198 197 198 198 199 201 201 201 202 203 204 205 205 208 209 210 210 209 209 210 212 213 213 215 217 220 223 225 226 228 232 234 235 237 238 239 239 240 241 243 244 244 244 246 247 249 254 257 258 257 257 258
194 174 157 185 230 183 200 204 194 225 241 231 190 165 193 233 242 233 233 227 214 210 208 204 203 204 205 205 204 203 200 200 198 196 194 188 190 196 195 194 194 194 195 196 196 197 197 198 198 198 200 201 202 202 203 204 205 206 208 209 210 211 210 211 212 213 215 216 216 216 218 220 222 223 225 229 232 233 235 236 236 237 238 241 243 245 246 245 245 248 250 254 255 254 255 256 257
194 187 171 184 190 196 213 215 234 246 251 234 175 161 211 242 234 224 226 229 220 212 214 211 207 206 205 204 201 200 200 199 198 195 192 192 194 197 196 193 192 193 195 195 196 196 196 197 198 199 201 201 201 202 203 204 206 207 208 209 210 210 210 212 213 215 217 218 219 218 219 220 221 223 225 228 231 232 234 236 237 238 239 242 245 246 247 246 245 247 248 250 251 251 253 255 256
195 188 182 197 192 189 194 185 215 229 245 245 188 175 200 197 213 214 215 225 218 211 220 215 212 211 206 204 199 199 201 199 198 195 194 196 196 196 196 193 193 193 194 195 196 196 196 196 197 198 200 201 201 202 203 204 206 208 209 209 210 209 210 212 214 216 218 219 220 220 221 222 224 226 228 230 231 232 234 236 237 239 239 242 245 247 248 247 246 246 246 247 249 250 251 252 254
199 173 186 212 190 151 164 194 193 171 202 235 209 212 212 206 256 247 221 227 212 210 221 216 216 212 199 199 197 197 203 200 197 196 198 200 197 195 195 194 194 192 193 195 196 196 196 197 197 198 200 200 201 202 203 205 207 208 209 209 209 210 211 212 214 216 218 220 222 222 224 225 227 228 229 231 232 233 234 235 237 238 239 242 245 247 248 248 247 245 244 246 248 249 249 251 252
183 172 197 204 142 137 210 241 194 130 208 229 215 247 260 266 273 264 207 228 217 212 219 218 218 208 190 193 196 196 198 197 196 197 200 200 195 194 195 194 194 193 193 195 196 196 196 196 197 198 200 200 201 202 204 205 207 207 208 209 209 210 210 212 214 216 219 220 222 224 226 227 229 230 231 232 233 234 235 235 236 238 239 242 245 248 249 249 248 247 245 246 248 249 250 251 252
150 186 192 146 102 158 202 232 237 197 227 257 269 238 227 217 251 240 164 206 229 220 214 218 220 206 193 198 200 196 195 194 196 198 200 198 194 195 195 196 196 195 194 195 196 196 197 197 197 198 199 200 201 202 204 205 206 207 208 209 209 210 211 213 216 217 218 219 222 225 226 228 230 231 232 233 234 235 235 235 235 236 239 242 245 248 249 250 249 248 247 247 248 250 252 253 253
184 184 169 148 155 194 187 200 215 206 230 274 276 238 217 210 227 214 184 202 224 224 217 217 216 206 201 204 204 199 194 193 195 198 199 195 194 196 195 197 199 197 196 195 194 194 196 197 198 198 200 201 201 202 204 205 206 207 208 209 209 210 212 214 216 217 218 219 222 224 226 229 231 232 233 234 234 235 235 235 235 236 238 241 245 248 249 250 250 249 249 248 249 250 252 253 253
198 169 158 169 191 195 187 188 186 187 213 244 250 246 240 230 206 186 196 203 208 215 217 215 213 209 206 205 205 200 193 192 195 198 199 194 195 197 196 197 198 197 195 193 192 193 194 196 197 199 200 201 201 202 203 205 206 207 208 209 209 210 212 213 215 215 217 220 223 224 226 228 230 232 234 234 234 235 236 236 236 236 238 240 243 246 248 249 250 250 250 249 250 251 253 255 255
204 193 178 187 204 195 198 207 164 169 186 206 240 254 255 251 201 184 197 203 201 203 208 213 213 210 209 208 205 198 193 194 197 198 197 196 196 196 196 197 196 195 192 190 191 192 194 195 196 198 199 199 200 201 202 203 205 206 207 208 209 210 211 213 213 215 217 220 223 224 225 227 229 231 233 233 233 235 237 238 237 237 239 240 242 245 247 248 249 250 251 250 251 252 253 256 257
249 235 203 195 191 143 189 226 212 177 191 187 208 257 262 253 207 192 198 201 203 202 201 210 215 207 207 211 207 199 195 197 199 199 197 198 198 197 195 192 189 188 188 190 191 192 192 194 196 197 197 198 199 199 201 202 204 205 207 208 209 210 210 212 213 214 217 220 222 223 224 225 227 230 232 233 234 235 237 238 239 239 240 241 243 245 246 247 247 248 250 250 250 251 252 254 255